SERPENS

Last updated on March 27, 2016, 9:35 a.m. UTC

1 40897U 98067GX  16087.17198643  .14496049  12607-4  75186-3 0  9996
2 40897  51.6079  83.5146 0009266 349.7464  11.2974 16.42052915 30018

Satellite is not in orbit.